Location: Kellogg
(38.0159°N, 90.0546°W)
Time: 21:38:46
(UTC+00:00)

Vanguard 1 - Pass Details

Date: 20 September 2024
Orbit: 648 x 3825 km, 34.3° (Epoch: 12 October)

Event Time Altitude Azimuth Distance (km) Brightness Sun altitude
Rises 21:36:08 0° 278° (W) 4,977 14.6 26.8°
Reaches altitude 10° 21:40:17 10° 272° (W) 3,486 14.2 26.0°
Maximum altitude 21:47:34 39° 206° (SSW) 1,373 11.8 24.7°
Drops below altitude 10° 21:52:18 10° 137° (SE) 2,252 11.8 23.8°
Sets 21:54:26 0° 129° (SE) 3,044 12.3 23.4°
